Time,TemperatureF,DewpointF,PressureIn,WindDirection,WindDirectionDegrees,WindSpeedMPH,WindSpeedGustMPH,Humidity,HourlyPrecipIn,Conditions,Clouds,dailyrainin,SolarRadiationWatts/m^2,SoftwareType,DateUTC
2013-11-11 00:01:00,40.3,22.6,30.26,WNW,296,0.0,0.0,49,0.00,CLR,,0.00,0.0,WeatherDisplay:10.37,2013-11-11 05:01:00,
2013-11-11 00:02:00,40.2,22.5,30.26,WNW,296,0.0,0.0,49,0.00,CLR,,0.00,0.0,WeatherDisplay:10.37,2013-11-11 05:02:00,
2013-11-11 00:04:00,40.1,22.4,30.26,WNW,296,0.0,0.0,49,0.00,CLR,,0.00,0.0,WeatherDisplay:10.37,2013-11-11 05:04:00,
2013-11-11 00:05:00,39.9,22.3,30.26,WNW,296,0.0,0.0,49,0.00,CLR,,0.00,0.0,WeatherDisplay:10.37,2013-11-11 05:05:00,
2013-11-11 00:10:00,38.9,21.8,30.26,WNW,296,0.0,0.0,50,0.00,CLR,,0.00,0.0,WeatherDisplay:10.37,2013-11-11 05:10:00,
2013-11-11 00:15:00,38.0,21.9,30.27,WNW,296,0.0,0.0,52,0.00,CLR,,0.00,0.0,WeatherDisplay:10.37,2013-11-11 05:15:00,
2013-11-11 00:20:00,37.3,21.7,30.27,WNW,296,0.0,0.0,53,0.00,CLR,,0.00,0.0,WeatherDisplay:10.37,2013-11-11 05:20:00,
2013-11-11 00:25:00,36.5,21.8,30.27,WNW,296,0.0,0.0,55,0.00,CLR,,0.00,0.0,WeatherDisplay:10.37,2013-11-11 05:25:00,
2013-11-11 00:30:00,36.2,22.4,30.26,WNW,296,0.2,1.5,57,0.00,CLR,,0.00,0.0,WeatherDisplay:10.37,2013-11-11 05:30:00,
2013-11-11 00:35:00,36.6,22.8,30.26,WNW,296,1.4,3.5,57,0.00,CLR,,0.00,0.0,WeatherDisplay:10.37,2013-11-11 05:35:00,
2013-11-11 00:40:00,37.6,23.3,30.26,WNW,296,2.2,4.6,56,0.00,CLR,,0.00,0.0,WeatherDisplay:10.37,2013-11-11 05:40:00,
2013-11-11 00:45:00,38.3,23.1,30.26,WNW,295,1.2,1.5,54,0.00,CLR,,0.00,0.0,WeatherDisplay:10.37,2013-11-11 05:45:00,
2013-11-11 00:50:00,38.8,23.1,30.27,WNW,295,0.5,3.5,53,0.00,CLR,,0.00,0.0,WeatherDisplay:10.37,2013-11-11 05:50:00,
2013-11-11 00:55:00,38.8,22.7,30.27,WNW,295,0.0,0.0,52,0.00,CLR,,0.00,0.0,WeatherDisplay:10.37,2013-11-11 05:55:00,
2013-11-11 01:00:00,38.0,22.4,30.27,WNW,295,0.0,0.0,53,0.00,CLR,,0.00,0.0,WeatherDisplay:10.37,2013-11-11 06:00:00,
2013-11-11 01:05:00,37.0,21.9,30.27,WNW,295,0.0,0.0,54,0.00,CLR,,0.00,0.0,WeatherDisplay:10.37,2013-11-11 06:05:00,
2013-11-11 01:10:00,36.3,21.7,30.27,WNW,295,0.0,0.0,55,0.00,CLR,,0.00,0.0,WeatherDisplay:10.37,2013-11-11 06:10:00,
2013-11-11 01:15:00,35.9,21.7,30.27,WNW,295,0.0,0.0,56,0.00,CLR,,0.00,0.0,WeatherDisplay:10.37,2013-11-11 06:15:00,
2013-11-11 01:20:00,35.5,21.8,30.27,WNW,295,0.0,0.0,57,0.00,CLR,,0.00,0.0,WeatherDisplay:10.37,2013-11-11 06:20:00,
2013-11-11 01:25:00,35.0,21.7,30.27,WNW,295,0.0,0.0,58,0.00,CLR,,0.00,0.0,WeatherDisplay:10.37,2013-11-11 06:25:00,
2013-11-11 01:30:00,34.7,21.8,30.27,WNW,295,0.0,0.0,59,0.00,CLR,,0.00,0.0,WeatherDisplay:10.37,2013-11-11 06:30:00,
2013-11-11 01:35:00,34.4,21.5,30.27,WNW,295,0.0,0.0,59,0.00,CLR,,0.00,0.0,WeatherDisplay:10.37,2013-11-11 06:35:00,
2013-11-11 01:40:00,34.0,21.6,30.27,WNW,295,0.0,0.0,60,0.00,CLR,,0.00,0.0,WeatherDisplay:10.37,2013-11-11 06:40:00,
2013-11-11 01:45:00,33.8,22.1,30.27,WNW,295,0.0,0.0,62,0.00,CLR,,0.00,0.0,WeatherDisplay:10.37,2013-11-11 06:45:00,
2013-11-11 01:50:00,34.3,23.0,30.27,WNW,295,0.6,3.5,63,0.00,CLR,,0.00,0.0,WeatherDisplay:10.37,2013-11-11 06:50:00,
2013-11-11 01:55:00,35.3,23.2,30.27,WNW,296,0.5,3.0,61,0.00,CLR,,0.00,0.0,WeatherDisplay:10.37,2013-11-11 06:55:00,
2013-11-11 02:00:00,36.0,23.0,30.27,WNW,296,0.1,1.2,59,0.00,CLR,,0.00,0.0,WeatherDisplay:10.37,2013-11-11 07:00:00,
2013-11-11 02:05:00,36.8,23.4,30.27,WNW,296,0.0,1.2,58,0.00,CLR,,0.00,0.0,WeatherDisplay:10.37,2013-11-11 07:05:00,
2013-11-11 02:10:00,36.9,23.1,30.27,WNW,296,0.1,1.2,57,0.00,CLR,,0.00,0.0,WeatherDisplay:10.37,2013-11-11 07:10:00,
2013-11-11 02:15:00,36.9,23.1,30.27,WNW,296,0.0,0.0,57,0.00,CLR,,0.00,0.0,WeatherDisplay:10.37,2013-11-11 07:15:00,
2013-11-11 02:20:00,36.6,22.8,30.27,WNW,296,0.0,0.0,57,0.00,CLR,,0.00,0.0,WeatherDisplay:10.37,2013-11-11 07:20:00,
2013-11-11 02:25:00,35.9,22.1,30.28,WNW,296,0.0,0.0,57,0.00,CLR,,0.00,0.0,WeatherDisplay:10.37,2013-11-11 07:25:00,
2013-11-11 02:31:00,35.5,22.2,30.28,WNW,296,0.0,0.0,58,0.00,CLR,,0.00,0.0,WeatherDisplay:10.37,2013-11-11 07:31:00,
2013-11-11 02:36:00,35.0,22.1,30.28,WNW,296,0.0,0.0,59,0.00,CLR,,0.00,0.0,WeatherDisplay:10.37,2013-11-11 07:36:00,
2013-11-11 02:41:00,34.7,22.2,30.28,WNW,296,0.0,0.0,60,0.00,CLR,,0.00,0.0,WeatherDisplay:10.37,2013-11-11 07:41:00,
2013-11-11 02:46:00,34.1,21.7,30.29,WNW,296,0.0,0.0,60,0.00,CLR,,0.00,0.0,WeatherDisplay:10.37,2013-11-11 07:46:00,
2013-11-11 02:51:00,33.4,21.8,30.29,WNW,296,0.0,0.0,62,0.00,CLR,,0.00,0.0,WeatherDisplay:10.37,2013-11-11 07:51:00,
2013-11-11 02:56:00,33.4,22.1,30.29,WNW,296,0.0,0.0,63,0.00,CLR,,0.00,0.0,WeatherDisplay:10.37,2013-11-11 07:56:00,
2013-11-11 03:01:00,33.1,21.9,30.29,WNW,296,0.0,0.0,63,0.00,CLR,,0.00,0.0,WeatherDisplay:10.37,2013-11-11 08:01:00,
2013-11-11 03:06:00,32.5,21.7,30.29,WNW,296,0.0,0.0,64,0.00,CLR,,0.00,0.0,WeatherDisplay:10.37,2013-11-11 08:06:00,
2013-11-11 03:11:00,32.1,21.7,30.28,WNW,296,0.0,0.0,65,0.00,CLR,,0.00,0.0,WeatherDisplay:10.37,2013-11-11 08:11:00,
2013-11-11 03:16:00,31.5,21.4,30.28,WNW,296,0.0,0.0,66,0.00,CLR,,0.00,0.0,WeatherDisplay:10.37,2013-11-11 08:16:00,
2013-11-11 03:21:00,31.3,21.6,30.28,WNW,296,0.0,0.0,67,0.00,CLR,,0.00,0.0,WeatherDisplay:10.37,2013-11-11 08:21:00,
2013-11-11 03:26:00,31.0,21.3,30.29,WNW,296,0.0,0.0,67,0.00,CLR,,0.00,0.0,WeatherDisplay:10.37,2013-11-11 08:26:00,
2013-11-11 03:31:00,30.6,21.3,30.28,WNW,296,0.0,0.0,68,0.00,CLR,,0.00,0.0,WeatherDisplay:10.37,2013-11-11 08:31:00,
2013-11-11 03:36:00,30.3,21.3,30.28,WNW,296,0.0,0.0,69,0.00,CLR,,0.00,0.0,WeatherDisplay:10.37,2013-11-11 08:36:00,
2013-11-11 03:41:00,30.1,21.2,30.28,WNW,296,0.0,0.0,69,0.00,CLR,,0.00,0.0,WeatherDisplay:10.37,2013-11-11 08:41:00,
2013-11-11 03:46:00,29.8,21.2,30.28,WNW,296,0.0,0.0,70,0.00,CLR,,0.00,0.0,WeatherDisplay:10.37,2013-11-11 08:46:00,
2013-11-11 03:51:00,29.5,20.9,30.28,WNW,296,0.0,0.0,70,0.00,CLR,,0.00,0.0,WeatherDisplay:10.37,2013-11-11 08:51:00,
2013-11-11 03:56:00,29.4,21.2,30.28,WNW,296,0.0,0.0,71,0.00,CLR,,0.00,0.0,WeatherDisplay:10.37,2013-11-11 08:56:00,
2013-11-11 04:01:00,29.3,21.1,30.28,WNW,295,0.0,0.0,71,0.00,CLR,,0.00,0.0,WeatherDisplay:10.37,2013-11-11 09:01:00,
2013-11-11 04:06:00,29.1,21.2,30.28,WNW,296,0.0,0.0,72,0.00,CLR,,0.00,0.0,WeatherDisplay:10.37,2013-11-11 09:06:00,
2013-11-11 04:11:00,28.8,20.9,30.28,WNW,296,0.0,0.0,72,0.00,CLR,,0.00,0.0,WeatherDisplay:10.37,2013-11-11 09:11:00,
2013-11-11 04:16:00,28.7,20.8,30.28,WNW,296,0.0,0.0,72,0.00,CLR,,0.00,0.0,WeatherDisplay:10.37,2013-11-11 09:16:00,
2013-11-11 04:21:00,28.5,20.9,30.28,WNW,296,0.0,0.0,73,0.00,CLR,,0.00,0.0,WeatherDisplay:10.37,2013-11-11 09:21:00,
2013-11-11 04:26:00,28.1,20.6,30.28,WNW,296,0.0,0.0,73,0.00,CLR,,0.00,0.0,WeatherDisplay:10.37,2013-11-11 09:26:00,
2013-11-11 04:31:00,27.8,20.3,30.28,WNW,296,0.0,0.0,73,0.00,CLR,,0.00,0.0,WeatherDisplay:10.37,2013-11-11 09:31:00,
2013-11-11 04:36:00,27.8,20.6,30.28,WNW,296,0.0,0.0,74,0.00,CLR,,0.00,0.0,WeatherDisplay:10.37,2013-11-11 09:36:00,
2013-11-11 04:41:00,27.6,20.4,30.28,WNW,296,0.0,0.0,74,0.00,CLR,,0.00,0.0,WeatherDisplay:10.37,2013-11-11 09:41:00,
2013-11-11 04:46:00,27.8,20.9,30.28,WNW,296,0.0,0.0,75,0.00,CLR,,0.00,0.0,WeatherDisplay:10.37,2013-11-11 09:46:00,
2013-11-11 04:51:00,27.6,20.7,30.28,WNW,296,0.0,0.0,75,0.00,CLR,,0.00,0.0,WeatherDisplay:10.37,2013-11-11 09:51:00,
2013-11-11 04:56:00,27.5,20.6,30.28,WNW,296,0.0,0.0,75,0.00,CLR,,0.00,0.0,WeatherDisplay:10.37,2013-11-11 09:56:00,
2013-11-11 05:01:00,27.2,20.3,30.28,WNW,296,0.0,0.0,75,0.00,CLR,,0.00,0.0,WeatherDisplay:10.37,2013-11-11 10:01:00,
2013-11-11 05:06:00,27.3,20.7,30.28,WNW,296,0.0,0.0,76,0.00,CLR,,0.00,0.0,WeatherDisplay:10.37,2013-11-11 10:06:00,
2013-11-11 05:11:00,27.5,20.9,30.28,WNW,296,0.0,0.0,76,0.00,CLR,,0.00,0.0,WeatherDisplay:10.37,2013-11-11 10:11:00,
2013-11-11 05:16:00,27.3,20.7,30.28,WNW,296,0.0,0.0,76,0.00,CLR,,0.00,0.0,WeatherDisplay:10.37,2013-11-11 10:16:00,
2013-11-11 05:21:00,27.5,20.9,30.29,WNW,296,0.1,1.5,76,0.00,CLR,,0.00,0.0,WeatherDisplay:10.37,2013-11-11 10:21:00,
2013-11-11 05:26:00,28.1,21.8,30.29,WNW,296,0.1,1.5,77,0.00,CLR,,0.00,0.0,WeatherDisplay:10.37,2013-11-11 10:26:00,
2013-11-11 05:31:00,28.7,22.7,30.30,WNW,295,0.0,0.0,78,0.00,CLR,,0.00,0.0,WeatherDisplay:10.37,2013-11-11 10:31:00,
2013-11-11 05:36:00,29.5,23.5,30.30,WNW,295,1.3,3.0,78,0.00,CLR,,0.00,0.0,WeatherDisplay:10.37,2013-11-11 10:36:00,
2013-11-11 05:41:00,29.5,23.2,30.30,WNW,295,0.0,0.0,77,0.00,CLR,,0.00,0.0,WeatherDisplay:10.37,2013-11-11 10:41:00,
2013-11-11 05:46:00,29.7,23.4,30.30,WNW,296,0.0,0.0,77,0.00,CLR,,0.00,0.0,WeatherDisplay:10.37,2013-11-11 10:46:00,
2013-11-11 05:51:00,29.5,23.2,30.30,WNW,295,0.0,0.0,77,0.00,CLR,,0.00,0.0,WeatherDisplay:10.37,2013-11-11 10:51:00,
2013-11-11 05:56:00,29.3,23.0,30.30,WNW,296,0.0,0.0,77,0.00,CLR,,0.00,0.0,WeatherDisplay:10.37,2013-11-11 10:56:00,
2013-11-11 06:01:00,29.3,23.0,30.30,WNW,296,0.0,0.0,77,0.00,CLR,,0.00,0.0,WeatherDisplay:10.37,2013-11-11 11:01:00,
2013-11-11 06:06:00,29.4,23.1,30.30,WNW,296,0.0,0.0,77,0.00,CLR,,0.00,0.0,WeatherDisplay:10.37,2013-11-11 11:06:00,
2013-11-11 06:11:00,29.4,23.1,30.30,WNW,296,0.0,0.0,77,0.00,CLR,,0.00,0.0,WeatherDisplay:10.37,2013-11-11 11:11:00,
2013-11-11 06:16:00,29.4,23.1,30.30,WNW,296,0.0,0.0,77,0.00,CLR,,0.00,0.0,WeatherDisplay:10.37,2013-11-11 11:16:00,
2013-11-11 06:21:00,29.3,22.7,30.30,WNW,296,0.0,0.0,76,0.00,CLR,,0.00,0.0,WeatherDisplay:10.37,2013-11-11 11:21:00,
2013-11-11 06:26:00,29.5,23.2,30.30,WNW,296,0.0,0.0,77,0.00,CLR,,0.00,0.0,WeatherDisplay:10.37,2013-11-11 11:26:00,
2013-11-11 06:31:00,30.0,23.7,30.30,WNW,296,0.0,0.0,77,0.00,CLR,,0.00,0.0,WeatherDisplay:10.37,2013-11-11 11:31:00,
2013-11-11 06:36:00,30.4,24.1,30.30,WNW,296,0.0,0.0,77,0.00,CLR,,0.00,0.0,WeatherDisplay:10.37,2013-11-11 11:36:00,
2013-11-11 06:41:00,30.7,24.3,30.30,WNW,296,0.0,0.0,77,0.00,CLR,,0.00,0.0,WeatherDisplay:10.37,2013-11-11 11:41:00,
2013-11-11 06:46:00,31.0,24.3,30.31,WNW,296,0.0,0.0,76,0.00,CLR,,0.00,0.0,WeatherDisplay:10.37,2013-11-11 11:46:00,
2013-11-11 06:51:00,31.2,24.5,30.31,WNW,296,0.0,0.0,76,0.00,CLR,,0.00,5.0,WeatherDisplay:10.37,2013-11-11 11:51:00,
2013-11-11 06:56:00,31.3,24.6,30.31,WNW,296,0.0,0.0,76,0.00,CLR,,0.00,7.0,WeatherDisplay:10.37,2013-11-11 11:56:00,
2013-11-11 07:01:00,31.2,24.2,30.31,WNW,295,0.0,0.0,75,0.00,CLR,,0.00,12.0,WeatherDisplay:10.37,2013-11-11 12:01:00,
2013-11-11 07:06:00,31.8,25.1,30.31,WNW,296,0.0,0.0,76,0.00,SCT,,0.00,18.0,WeatherDisplay:10.37,2013-11-11 12:06:00,
2013-11-11 07:11:00,32.4,25.4,30.31,WNW,296,0.0,0.0,75,0.00,SCT,,0.00,19.0,WeatherDisplay:10.37,2013-11-11 12:11:00,
2013-11-11 07:16:00,32.9,25.5,30.30,WNW,296,0.0,0.0,74,0.00,SCT,,0.00,23.0,WeatherDisplay:10.37,2013-11-11 12:16:00,
2013-11-11 07:21:00,33.4,25.7,30.30,WNW,296,0.0,0.0,73,0.00,SCT,,0.00,26.0,WeatherDisplay:10.37,2013-11-11 12:21:00,
2013-11-11 07:26:00,33.5,25.4,30.30,WNW,296,0.0,0.0,72,0.00,SCT,,0.00,33.0,WeatherDisplay:10.37,2013-11-11 12:26:00,
2013-11-11 07:31:00,33.4,25.0,30.31,WNW,296,0.0,0.0,71,0.00,SCT,,0.00,42.0,WeatherDisplay:10.37,2013-11-11 12:31:00,
2013-11-11 07:36:00,32.9,24.2,30.31,WNW,296,0.0,0.0,70,0.00,SCT,,0.00,47.0,WeatherDisplay:10.37,2013-11-11 12:36:00,
2013-11-11 07:41:00,32.7,24.3,30.30,WNW,296,0.0,0.0,71,0.00,SCT,,0.00,58.0,WeatherDisplay:10.37,2013-11-11 12:41:00,
2013-11-11 07:46:00,33.1,24.7,30.30,WNW,295,0.0,0.0,71,0.00,SCT,,0.00,67.0,WeatherDisplay:10.37,2013-11-11 12:46:00,
2013-11-11 07:51:00,34.1,25.7,30.30,WNW,296,0.0,0.0,71,0.00,SCT,,0.00,77.0,WeatherDisplay:10.37,2013-11-11 12:51:00,
2013-11-11 07:56:00,34.9,26.4,30.31,WNW,296,0.0,0.0,71,0.00,SCT,,0.00,95.0,WeatherDisplay:10.37,2013-11-11 12:56:00,
2013-11-11 08:01:00,35.9,26.7,30.31,WNW,295,0.0,0.0,69,0.00,SCT,,0.00,100.0,WeatherDisplay:10.37,2013-11-11 13:01:00,
2013-11-11 08:06:00,36.8,27.2,30.31,WNW,295,0.0,0.0,68,0.00,SCT,,0.00,105.0,WeatherDisplay:10.37,2013-11-11 13:06:00,
2013-11-11 08:11:00,37.5,27.5,30.31,WNW,295,0.0,0.0,67,0.00,FEW,,0.00,102.0,WeatherDisplay:10.37,2013-11-11 13:11:00,
2013-11-11 08:16:00,38.0,27.6,30.31,WNW,295,0.8,3.0,66,0.00,FEW,,0.00,100.0,WeatherDisplay:10.37,2013-11-11 13:16:00,
2013-11-11 08:21:00,38.5,28.1,30.31,WNW,295,0.1,1.5,66,0.00,FEW,,0.00,102.0,WeatherDisplay:10.37,2013-11-11 13:21:00,
2013-11-11 08:26:00,39.1,28.3,30.31,West,268,1.5,3.0,65,0.00,FEW,,0.00,113.0,WeatherDisplay:10.37,2013-11-11 13:26:00,
2013-11-11 08:31:00,39.6,28.0,30.31,West,259,0.4,1.5,63,0.00,FEW,,0.00,98.0,WeatherDisplay:10.37,2013-11-11 13:31:00,
2013-11-11 08:36:00,39.9,27.9,30.30,WSW,243,4.4,6.0,62,0.00,FEW,,0.00,97.0,WeatherDisplay:10.37,2013-11-11 13:36:00,
2013-11-11 08:41:00,40.2,27.8,30.30,WSW,238,3.5,5.8,61,0.00,FEW,,0.00,109.0,WeatherDisplay:10.37,2013-11-11 13:41:00,
2013-11-11 08:46:00,40.5,27.7,30.31,WSW,238,3.7,4.6,60,0.00,FEW,,0.00,100.0,WeatherDisplay:10.37,2013-11-11 13:46:00,
2013-11-11 08:51:00,40.8,28.0,30.30,WSW,238,0.5,1.5,60,0.00,FEW,,0.00,113.0,WeatherDisplay:10.37,2013-11-11 13:51:00,
2013-11-11 08:56:00,40.9,28.1,30.30,SW,232,2.9,7.5,60,0.00,FEW,,0.00,174.0,WeatherDisplay:10.37,2013-11-11 13:56:00,
2013-11-11 09:01:00,41.3,28.4,30.31,SW,234,0.5,4.6,60,0.00,FEW,,0.00,183.0,WeatherDisplay:10.37,2013-11-11 14:01:00,
2013-11-11 09:06:00,41.6,28.3,30.31,SW,235,2.2,3.5,59,0.00,FEW,,0.00,294.0,WeatherDisplay:10.37,2013-11-11 14:06:00,
2013-11-11 09:11:00,42.5,29.2,30.30,West,262,6.3,9.2,59,0.00,BKN,,0.00,318.0,WeatherDisplay:10.37,2013-11-11 14:11:00,
2013-11-11 09:16:00,43.1,28.5,30.30,WSW,244,7.0,8.1,56,0.00,BKN,,0.00,262.0,WeatherDisplay:10.37,2013-11-11 14:16:00,
2013-11-11 09:21:00,43.5,28.8,30.30,WSW,244,4.4,8.1,56,0.00,BKN,,0.00,257.0,WeatherDisplay:10.37,2013-11-11 14:21:00,
2013-11-11 09:26:00,43.8,28.2,30.30,West,268,1.4,4.6,54,0.00,BKN,,0.00,225.0,WeatherDisplay:10.37,2013-11-11 14:26:00,
2013-11-11 09:31:00,44.2,28.6,30.30,SW,236,5.1,6.0,54,0.00,BKN,,0.00,202.0,WeatherDisplay:10.37,2013-11-11 14:31:00,
2013-11-11 09:36:00,44.5,28.4,30.30,SW,236,1.0,4.5,53,0.00,BKN,,0.00,345.0,WeatherDisplay:10.37,2013-11-11 14:36:00,
2013-11-11 09:41:00,44.9,27.8,30.30,West,269,4.3,7.5,51,0.00,BKN,,0.00,327.0,WeatherDisplay:10.37,2013-11-11 14:41:00,
2013-11-11 09:46:00,45.4,28.3,30.30,WSW,256,5.4,8.1,51,0.00,BKN,,0.00,411.0,WeatherDisplay:10.37,2013-11-11 14:46:00,
2013-11-11 09:51:00,45.7,27.6,30.30,SW,224,8.5,11.5,49,0.00,BKN,,0.00,417.0,WeatherDisplay:10.37,2013-11-11 14:51:00,
2013-11-11 09:56:00,45.8,27.2,30.30,WSW,238,9.0,10.5,48,0.00,BKN,,0.00,432.0,WeatherDisplay:10.37,2013-11-11 14:56:00,
2013-11-11 10:01:00,46.2,27.6,30.30,SW,236,7.0,10.5,48,0.00,BKN,,0.00,441.0,WeatherDisplay:10.37,2013-11-11 15:01:00,
2013-11-11 10:06:00,46.5,27.8,30.29,WSW,253,6.9,6.9,48,0.00,BKN,,0.00,448.0,WeatherDisplay:10.37,2013-11-11 15:06:00,
2013-11-11 10:11:00,46.8,27.6,30.29,SW,229,7.7,9.2,47,0.00,BKN,,0.00,469.0,WeatherDisplay:10.37,2013-11-11 15:11:00,
2013-11-11 10:16:00,47.1,27.4,30.29,WSW,239,5.0,9.0,46,0.00,BKN,,0.00,448.0,WeatherDisplay:10.37,2013-11-11 15:16:00,
2013-11-11 10:21:00,47.0,26.2,30.29,SW,236,8.5,9.2,44,0.00,BKN,,0.00,227.0,WeatherDisplay:10.37,2013-11-11 15:21:00,
2013-11-11 10:26:00,47.0,26.7,30.28,SW,225,7.8,9.2,45,0.00,BKN,,0.00,380.0,WeatherDisplay:10.37,2013-11-11 15:26:00,
2013-11-11 10:31:00,47.7,27.4,30.28,SW,229,11.8,16.5,45,0.00,BKN,,0.00,610.0,WeatherDisplay:10.37,2013-11-11 15:31:00,
2013-11-11 10:36:00,48.3,27.9,30.28,SW,227,9.0,11.5,45,0.00,BKN,,0.00,749.0,WeatherDisplay:10.37,2013-11-11 15:36:00,
2013-11-11 10:41:00,48.6,27.6,30.28,SW,224,7.2,7.5,44,0.00,BKN,,0.00,327.0,WeatherDisplay:10.37,2013-11-11 15:41:00,
2013-11-11 10:46:00,48.5,27.6,30.27,SW,216,5.9,8.1,44,0.00,BKN,,0.00,320.0,WeatherDisplay:10.37,2013-11-11 15:46:00,
2013-11-11 10:51:00,48.2,26.7,30.27,SW,227,6.8,6.8,43,0.00,BKN,,0.00,359.0,WeatherDisplay:10.37,2013-11-11 15:51:00,
2013-11-11 10:56:00,48.2,26.7,30.27,SW,219,7.1,8.1,43,0.00,BKN,,0.00,336.0,WeatherDisplay:10.37,2013-11-11 15:56:00,
2013-11-11 11:01:00,48.0,26.5,30.27,SW,232,9.0,9.2,43,0.00,SCT,,0.00,390.0,WeatherDisplay:10.37,2013-11-11 16:01:00,
2013-11-11 11:06:00,48.2,27.3,30.27,SW,217,5.2,13.8,44,0.00,SCT,,0.00,341.0,WeatherDisplay:10.37,2013-11-11 16:06:00,
2013-11-11 11:11:00,48.3,26.8,30.26,SW,225,11.9,11.9,43,0.00,SCT,,0.00,348.0,WeatherDisplay:10.37,2013-11-11 16:11:00,
2013-11-11 11:16:00,48.5,26.4,30.26,WSW,243,9.4,13.8,42,0.00,SCT,,0.00,325.0,WeatherDisplay:10.37,2013-11-11 16:16:00,
2013-11-11 11:21:00,48.5,26.4,30.25,SW,219,8.7,9.2,42,0.00,SCT,,0.00,306.0,WeatherDisplay:10.37,2013-11-11 16:21:00,
2013-11-11 11:26:00,48.5,25.2,30.24,SSE,165,16.2,18.0,40,0.00,SCT,,0.00,318.0,WeatherDisplay:10.37,2013-11-11 16:26:00,
2013-11-11 11:31:00,48.8,24.9,30.24,SSW,213,13.9,18.4,39,0.00,SCT,,0.00,330.0,WeatherDisplay:10.37,2013-11-11 16:31:00,
2013-11-11 11:36:00,49.1,24.6,30.24,SW,229,16.9,18.4,38,0.00,SCT,,0.00,334.0,WeatherDisplay:10.37,2013-11-11 16:36:00,
2013-11-11 11:41:00,49.4,24.2,30.24,SW,224,9.9,16.5,37,0.00,SCT,,0.00,316.0,WeatherDisplay:10.37,2013-11-11 16:41:00,
2013-11-11 11:46:00,49.5,24.3,30.24,SW,234,6.1,8.1,37,0.00,SCT,,0.00,327.0,WeatherDisplay:10.37,2013-11-11 16:46:00,
2013-11-11 11:51:00,49.8,25.2,30.23,SW,214,13.7,13.8,38,0.00,SCT,,0.00,334.0,WeatherDisplay:10.37,2013-11-11 16:51:00,
2013-11-11 11:56:00,50.1,25.5,30.23,SW,235,7.9,8.1,38,0.00,SCT,,0.00,339.0,WeatherDisplay:10.37,2013-11-11 16:56:00,
2013-11-11 12:01:00,50.4,25.7,30.22,SW,232,11.5,15.0,38,0.00,SCT,,0.00,374.0,WeatherDisplay:10.37,2013-11-11 17:01:00,
2013-11-11 12:06:00,50.8,25.4,30.22,SW,221,9.8,13.5,37,0.00,SCT,,0.00,315.0,WeatherDisplay:10.37,2013-11-11 17:06:00,
2013-11-11 12:11:00,51.0,25.0,30.21,SW,234,9.6,13.5,36,0.00,SCT,,0.00,271.0,WeatherDisplay:10.37,2013-11-11 17:11:00,
2013-11-11 12:16:00,51.1,25.0,30.21,SSW,198,8.5,11.5,36,0.00,SCT,,0.00,229.0,WeatherDisplay:10.37,2013-11-11 17:16:00,
2013-11-11 12:21:00,51.3,24.5,30.20,SW,230,7.5,13.8,35,0.00,SCT,,0.00,216.0,WeatherDisplay:10.37,2013-11-11 17:21:00,
2013-11-11 12:26:00,51.3,23.8,30.20,SW,236,8.5,8.5,34,0.00,SCT,,0.00,206.0,WeatherDisplay:10.37,2013-11-11 17:26:00,
2013-11-11 12:31:00,51.6,24.8,30.20,SW,230,8.5,9.2,35,0.00,SCT,,0.00,221.0,WeatherDisplay:10.37,2013-11-11 17:31:00,
2013-11-11 12:36:00,51.7,24.9,30.19,SW,229,8.0,8.1,35,0.00,SCT,,0.00,239.0,WeatherDisplay:10.37,2013-11-11 17:36:00,
2013-11-11 12:41:00,52.0,25.8,30.19,South,177,0.3,1.5,36,0.00,SCT,,0.00,237.0,WeatherDisplay:10.37,2013-11-11 17:41:00,
2013-11-11 12:46:00,52.2,25.3,30.19,SSW,207,6.3,8.1,35,0.00,SCT,,0.00,241.0,WeatherDisplay:10.37,2013-11-11 17:46:00,
2013-11-11 12:51:00,52.5,26.3,30.18,SW,220,2.7,5.8,36,0.00,SCT,,0.00,255.0,WeatherDisplay:10.37,2013-11-11 17:51:00,
2013-11-11 12:56:00,52.8,25.9,30.18,SW,221,5.6,5.6,35,0.00,SCT,,0.00,278.0,WeatherDisplay:10.37,2013-11-11 17:56:00,
2013-11-11 13:01:00,52.9,24.5,30.18,SW,221,4.0,5.8,33,0.00,SCT,,0.00,290.0,WeatherDisplay:10.37,2013-11-11 18:01:00,
2013-11-11 13:06:00,53.1,25.4,30.18,SW,221,1.1,4.6,34,0.00,SCT,,0.00,308.0,WeatherDisplay:10.37,2013-11-11 18:06:00,
2013-11-11 13:11:00,53.2,24.1,30.18,SW,215,3.1,5.8,32,0.00,SCT,,0.00,308.0,WeatherDisplay:10.37,2013-11-11 18:11:00,
2013-11-11 13:16:00,53.5,25.1,30.17,SSW,207,2.4,3.5,33,0.00,BKN,,0.00,309.0,WeatherDisplay:10.37,2013-11-11 18:16:00,
2013-11-11 13:21:00,53.8,25.3,30.17,SSW,209,2.7,4.6,33,0.00,BKN,,0.00,311.0,WeatherDisplay:10.37,2013-11-11 18:21:00,
2013-11-11 13:26:00,54.1,24.9,30.16,South,176,0.7,3.0,32,0.00,BKN,,0.00,320.0,WeatherDisplay:10.37,2013-11-11 18:26:00,
2013-11-11 13:31:00,54.7,25.4,30.16,SSE,153,1.5,4.6,32,0.00,BKN,,0.00,527.0,WeatherDisplay:10.37,2013-11-11 18:31:00,
2013-11-11 13:36:00,55.4,26.7,30.16,ESE,107,3.0,8.1,33,0.00,BKN,,0.00,478.0,WeatherDisplay:10.37,2013-11-11 18:36:00,
2013-11-11 13:41:00,56.3,26.8,30.15,SE,145,2.8,6.0,32,0.00,BKN,,0.00,475.0,WeatherDisplay:10.37,2013-11-11 18:41:00,
2013-11-11 13:46:00,56.5,25.4,30.15,SSE,147,3.4,8.1,30,0.00,BKN,,0.00,450.0,WeatherDisplay:10.37,2013-11-11 18:46:00,
2013-11-11 13:51:00,56.6,23.0,30.15,WSW,239,3.7,7.5,27,0.00,BKN,,0.00,420.0,WeatherDisplay:10.37,2013-11-11 18:51:00,
2013-11-11 13:56:00,56.7,23.0,30.15,South,177,11.8,15.0,27,0.00,BKN,,0.00,413.0,WeatherDisplay:10.37,2013-11-11 18:56:00,
2013-11-11 14:01:00,56.6,23.0,30.15,SSE,164,4.8,6.0,27,0.00,BKN,,0.00,425.0,WeatherDisplay:10.37,2013-11-11 19:01:00,
2013-11-11 14:06:00,56.0,23.3,30.14,ESE,102,1.8,5.8,28,0.00,BKN,,0.00,197.0,WeatherDisplay:10.37,2013-11-11 19:06:00,
2013-11-11 14:11:00,55.7,22.2,30.14,SE,145,8.9,10.5,27,0.00,BKN,,0.00,151.0,WeatherDisplay:10.37,2013-11-11 19:11:00,
2013-11-11 14:16:00,55.4,21.9,30.14,SSE,147,5.8,10.5,27,0.00,BKN,,0.00,200.0,WeatherDisplay:10.37,2013-11-11 19:16:00,
2013-11-11 14:21:00,55.4,21.0,30.13,SSE,167,7.7,8.1,26,0.00,BKN,,0.00,167.0,WeatherDisplay:10.37,2013-11-11 19:21:00,
2013-11-11 14:26:00,55.4,22.8,30.13,SW,214,1.0,5.8,28,0.00,BKN,,0.00,315.0,WeatherDisplay:10.37,2013-11-11 19:26:00,
2013-11-11 14:31:00,56.2,23.5,30.12,SW,223,4.8,7.5,28,0.00,BKN,,0.00,172.0,WeatherDisplay:10.37,2013-11-11 19:31:00,
2013-11-11 14:36:00,56.2,21.7,30.12,SW,223,4.4,5.8,26,0.00,BKN,,0.00,174.0,WeatherDisplay:10.37,2013-11-11 19:36:00,
2013-11-11 14:41:00,56.0,22.4,30.12,SSW,202,2.0,4.6,27,0.00,BKN,,0.00,299.0,WeatherDisplay:10.37,2013-11-11 19:41:00,
2013-11-11 14:46:00,56.5,23.7,30.11,SSW,213,0.9,6.0,28,0.00,BKN,,0.00,359.0,WeatherDisplay:10.37,2013-11-11 19:46:00,
2013-11-11 14:51:00,56.7,23.0,30.11,SSW,210,2.2,5.8,27,0.00,BKN,,0.00,302.0,WeatherDisplay:10.37,2013-11-11 19:51:00,
2013-11-11 14:56:00,57.2,20.7,30.11,SE,136,5.8,6.0,24,0.00,BKN,,0.00,251.0,WeatherDisplay:10.37,2013-11-11 19:56:00,
2013-11-11 15:01:00,57.0,21.5,30.11,SSE,155,5.7,9.2,25,0.00,BKN,,0.00,264.0,WeatherDisplay:10.37,2013-11-11 20:01:00,
2013-11-11 15:06:00,57.0,21.5,30.11,South,180,2.9,5.8,25,0.00,BKN,,0.00,253.0,WeatherDisplay:10.37,2013-11-11 20:06:00,
2013-11-11 15:11:00,57.0,22.4,30.11,ESE,111,1.9,4.6,26,0.00,BKN,,0.00,237.0,WeatherDisplay:10.37,2013-11-11 20:11:00,
2013-11-11 15:16:00,56.9,20.4,30.10,SE,134,12.0,15.0,24,0.00,BKN,,0.00,218.0,WeatherDisplay:10.37,2013-11-11 20:16:00,
2013-11-11 15:21:00,56.7,20.3,30.10,SE,140,9.2,9.2,24,0.00,BKN,,0.00,202.0,WeatherDisplay:10.37,2013-11-11 20:21:00,
2013-11-11 15:26:00,56.6,20.2,30.10,SE,144,7.8,9.2,24,0.00,BKN,,0.00,185.0,WeatherDisplay:10.37,2013-11-11 20:26:00,
2013-11-11 15:31:00,56.5,21.1,30.10,SSE,160,5.9,8.1,25,0.00,BKN,,0.00,171.0,WeatherDisplay:10.37,2013-11-11 20:31:00,
2013-11-11 15:36:00,56.6,22.1,30.10,SE,143,3.1,8.1,26,0.00,BKN,,0.00,155.0,WeatherDisplay:10.37,2013-11-11 20:36:00,
2013-11-11 15:41:00,56.7,22.2,30.10,SSE,161,2.9,6.0,26,0.00,BKN,,0.00,139.0,WeatherDisplay:10.37,2013-11-11 20:41:00,
2013-11-11 15:46:00,56.5,22.0,30.10,SE,137,0.5,1.2,26,0.00,BKN,,0.00,121.0,WeatherDisplay:10.37,2013-11-11 20:46:00,
2013-11-11 15:51:00,56.3,21.8,30.10,SSE,159,1.9,6.0,26,0.00,BKN,,0.00,109.0,WeatherDisplay:10.37,2013-11-11 20:51:00,
2013-11-11 15:56:00,56.3,21.8,30.10,SSE,159,0.2,1.5,26,0.00,BKN,,0.00,105.0,WeatherDisplay:10.37,2013-11-11 20:56:00,
2013-11-11 16:01:00,56.3,21.8,30.10,SSE,158,0.4,4.6,26,0.00,BKN,,0.00,86.0,WeatherDisplay:10.37,2013-11-11 21:01:00,
2013-11-11 16:06:00,55.9,22.4,30.10,SSE,158,0.6,3.5,27,0.00,BKN,,0.00,26.0,WeatherDisplay:10.37,2013-11-11 21:06:00,
2013-11-11 16:11:00,55.3,22.7,30.10,SSE,158,0.0,0.0,28,0.00,BKN,,0.00,37.0,WeatherDisplay:10.37,2013-11-11 21:11:00,
2013-11-11 16:16:00,54.8,22.3,30.10,SSE,158,0.0,0.0,28,0.00,BKN,,0.00,28.0,WeatherDisplay:10.37,2013-11-11 21:16:00,
2013-11-11 16:21:00,54.4,24.4,30.11,SSE,158,0.0,0.0,31,0.00,BKN,,0.00,21.0,WeatherDisplay:10.37,2013-11-11 21:21:00,
2013-11-11 16:26:00,53.8,24.6,30.10,SSE,158,0.0,0.0,32,0.00,BKN,,0.00,23.0,WeatherDisplay:10.37,2013-11-11 21:26:00,
2013-11-11 16:31:00,53.2,24.1,30.10,SSE,158,0.0,0.0,32,0.00,BKN,,0.00,21.0,WeatherDisplay:10.37,2013-11-11 21:31:00,
2013-11-11 16:36:00,53.2,23.3,30.10,SSE,158,0.1,1.5,31,0.00,BKN,,0.00,14.0,WeatherDisplay:10.37,2013-11-11 21:36:00,
2013-11-11 16:41:00,53.1,22.4,30.10,SSE,158,0.1,1.2,30,0.00,BKN,,0.00,9.0,WeatherDisplay:10.37,2013-11-11 21:41:00,
2013-11-11 16:46:00,52.9,22.3,30.10,SSE,158,0.0,1.5,30,0.00,BKN,,0.00,7.0,WeatherDisplay:10.37,2013-11-11 21:46:00,
2013-11-11 16:51:00,52.8,23.0,30.10,SSE,157,0.0,0.0,31,0.00,BKN,,0.00,5.0,WeatherDisplay:10.37,2013-11-11 21:51:00,
2013-11-11 16:56:00,52.8,23.0,30.09,SSE,157,0.2,1.5,31,0.00,BKN,,0.00,0.0,WeatherDisplay:10.37,2013-11-11 21:56:00,
2013-11-11 17:01:00,52.8,23.0,30.09,SSE,157,2.1,8.1,31,0.00,BKN,,0.00,0.0,WeatherDisplay:10.37,2013-11-11 22:01:00,
2013-11-11 17:06:00,52.8,22.2,30.09,SSE,157,0.3,1.5,30,0.00,BKN,,0.00,0.0,WeatherDisplay:10.37,2013-11-11 22:06:00,
2013-11-11 17:11:00,52.9,22.3,30.10,SSE,159,2.7,4.6,30,0.00,BKN,,0.00,0.0,WeatherDisplay:10.37,2013-11-11 22:11:00,
2013-11-11 17:16:00,53.1,22.4,30.10,SSE,159,0.0,0.0,30,0.00,BKN,,0.00,0.0,WeatherDisplay:10.37,2013-11-11 22:16:00,
2013-11-11 17:21:00,52.8,23.0,30.09,SSE,159,0.2,1.5,31,0.00,BKN,,0.00,0.0,WeatherDisplay:10.37,2013-11-11 22:21:00,
2013-11-11 17:26:00,52.5,22.7,30.09,SSE,159,0.0,0.0,31,0.00,BKN,,0.00,0.0,WeatherDisplay:10.37,2013-11-11 22:26:00,
2013-11-11 17:31:00,52.5,23.5,30.09,SSE,159,0.1,1.2,32,0.00,BKN,,0.00,0.0,WeatherDisplay:10.37,2013-11-11 22:31:00,
2013-11-11 17:36:00,52.5,23.5,30.09,SSE,159,0.3,1.5,32,0.00,BKN,,0.00,0.0,WeatherDisplay:10.37,2013-11-11 22:36:00,
2013-11-11 17:41:00,52.8,23.0,30.09,SSE,159,0.5,3.5,31,0.00,BKN,,0.00,0.0,WeatherDisplay:10.37,2013-11-11 22:41:00,
2013-11-11 17:46:00,52.8,23.7,30.09,SSE,159,2.1,6.0,32,0.00,BKN,,0.00,0.0,WeatherDisplay:10.37,2013-11-11 22:46:00,
2013-11-11 17:51:00,52.6,22.8,30.09,SSE,159,1.9,4.6,31,0.00,BKN,,0.00,0.0,WeatherDisplay:10.37,2013-11-11 22:51:00,
2013-11-11 17:56:00,52.6,23.5,30.09,SSE,159,0.1,1.2,32,0.00,BKN,,0.00,0.0,WeatherDisplay:10.37,2013-11-11 22:56:00,
2013-11-11 18:01:00,52.5,22.7,30.09,SSE,159,0.1,1.5,31,0.00,BKN,,0.00,0.0,WeatherDisplay:10.37,2013-11-11 23:01:00,
2013-11-11 18:06:00,52.5,22.7,30.09,SSE,159,0.0,0.0,31,0.00,BKN,,0.00,0.0,WeatherDisplay:10.37,2013-11-11 23:06:00,
2013-11-11 18:11:00,52.3,22.5,30.08,SSE,159,0.4,1.5,31,0.00,BKN,,0.00,0.0,WeatherDisplay:10.37,2013-11-11 23:11:00,
2013-11-11 18:16:00,52.2,22.4,30.08,SSE,159,0.0,1.5,31,0.00,BKN,,0.00,0.0,WeatherDisplay:10.37,2013-11-11 23:16:00,
2013-11-11 18:21:00,52.2,22.4,30.08,SSE,159,0.7,3.5,31,0.00,BKN,,0.00,0.0,WeatherDisplay:10.37,2013-11-11 23:21:00,
2013-11-11 18:26:00,52.0,22.3,30.08,SSE,159,0.0,0.0,31,0.00,BKN,,0.00,0.0,WeatherDisplay:10.37,2013-11-11 23:26:00,
2013-11-11 18:31:00,51.9,21.4,30.08,SSE,159,0.0,0.0,30,0.00,BKN,,0.00,0.0,WeatherDisplay:10.37,2013-11-11 23:31:00,
2013-11-11 18:36:00,51.9,22.2,30.08,SSE,158,0.1,1.2,31,0.00,BKN,,0.00,0.0,WeatherDisplay:10.37,2013-11-11 23:36:00,
2013-11-11 18:41:00,52.2,21.7,30.07,SSE,158,0.0,0.0,30,0.00,BKN,,0.00,0.0,WeatherDisplay:10.37,2013-11-11 23:41:00,
2013-11-11 18:46:00,52.2,22.4,30.06,SSE,158,0.0,0.0,31,0.00,BKN,,0.00,0.0,WeatherDisplay:10.37,2013-11-11 23:46:00,
2013-11-11 18:51:00,52.2,21.7,30.06,SSE,158,0.1,1.2,30,0.00,BKN,,0.00,0.0,WeatherDisplay:10.37,2013-11-11 23:51:00,
2013-11-11 18:56:00,52.0,21.5,30.06,SSE,158,0.0,0.0,30,0.00,BKN,,0.00,0.0,WeatherDisplay:10.37,2013-11-11 23:56:00,
2013-11-11 19:01:00,51.7,21.2,30.06,SSE,158,0.4,1.5,30,0.00,BKN,,0.00,0.0,WeatherDisplay:10.37,2013-11-12 00:01:00,
2013-11-11 19:06:00,51.7,21.2,30.06,SSE,157,0.0,1.2,30,0.00,BKN,,0.00,0.0,WeatherDisplay:10.37,2013-11-12 00:06:00,
2013-11-11 19:11:00,51.7,22.0,30.05,SSE,158,0.0,0.0,31,0.00,SCT,,0.00,0.0,WeatherDisplay:10.37,2013-11-12 00:11:00,
2013-11-11 19:16:00,51.4,21.7,30.05,SSE,158,0.1,1.2,31,0.00,SCT,,0.00,0.0,WeatherDisplay:10.37,2013-11-12 00:16:00,
2013-11-11 19:21:00,51.3,22.4,30.05,SSE,157,0.0,0.0,32,0.00,SCT,,0.00,0.0,WeatherDisplay:10.37,2013-11-12 00:21:00,
2013-11-11 19:26:00,51.1,22.2,30.05,SSE,157,0.0,0.0,32,0.00,SCT,,0.00,0.0,WeatherDisplay:10.37,2013-11-12 00:26:00,
2013-11-11 19:31:00,50.8,22.7,30.05,SSE,158,0.0,0.0,33,0.00,SCT,,0.00,0.0,WeatherDisplay:10.37,2013-11-12 00:31:00,
2013-11-11 19:36:00,50.4,23.1,30.05,SSE,158,0.0,0.0,34,0.00,SCT,,0.00,0.0,WeatherDisplay:10.37,2013-11-12 00:36:00,
2013-11-11 19:41:00,50.1,24.8,30.04,SSE,158,0.0,0.0,37,0.00,SCT,,0.00,0.0,WeatherDisplay:10.37,2013-11-12 00:41:00,
2013-11-11 19:46:00,49.5,25.5,30.04,SSE,157,0.0,0.0,39,0.00,SCT,,0.00,0.0,WeatherDisplay:10.37,2013-11-12 00:46:00,
2013-11-11 19:51:00,48.8,25.5,30.04,SSE,158,0.0,0.0,40,0.00,SCT,,0.00,0.0,WeatherDisplay:10.37,2013-11-12 00:51:00,
2013-11-11 19:56:00,47.9,26.5,30.04,SSE,157,0.0,0.0,43,0.00,SCT,,0.00,0.0,WeatherDisplay:10.37,2013-11-12 00:56:00,
2013-11-11 20:01:00,47.0,26.2,30.04,SSE,158,0.0,0.0,44,0.00,BKN,,0.00,0.0,WeatherDisplay:10.37,2013-11-12 01:01:00,
2013-11-11 20:06:00,46.7,25.9,30.04,SSE,157,0.0,0.0,44,0.00,BKN,,0.00,0.0,WeatherDisplay:10.37,2013-11-12 01:06:00,
2013-11-11 20:11:00,46.1,25.9,30.04,SSE,157,0.0,0.0,45,0.00,BKN,,0.00,0.0,WeatherDisplay:10.37,2013-11-12 01:11:00,
2013-11-11 20:16:00,45.7,25.5,30.04,SSE,158,0.0,0.0,45,0.00,BKN,,0.00,0.0,WeatherDisplay:10.37,2013-11-12 01:16:00,
2013-11-11 20:21:00,44.9,25.9,30.04,SSE,157,0.0,0.0,47,0.00,BKN,,0.00,0.0,WeatherDisplay:10.37,2013-11-12 01:21:00,
2013-11-11 20:27:00,44.2,25.2,30.04,SSE,158,0.0,0.0,47,0.00,BKN,,0.00,0.0,WeatherDisplay:10.37,2013-11-12 01:27:00,
2013-11-11 20:32:00,43.5,25.6,30.04,SSE,158,0.0,0.0,49,0.00,BKN,,0.00,0.0,WeatherDisplay:10.37,2013-11-12 01:32:00,
2013-11-11 20:37:00,42.8,25.4,30.04,SSE,158,0.0,0.0,50,0.00,BKN,,0.00,0.0,WeatherDisplay:10.37,2013-11-12 01:37:00,
2013-11-11 20:42:00,42.5,25.6,30.04,SSE,157,0.0,0.0,51,0.00,BKN,,0.00,0.0,WeatherDisplay:10.37,2013-11-12 01:42:00,
2013-11-11 20:47:00,42.1,25.3,30.03,SSE,158,0.0,0.0,51,0.00,BKN,,0.00,0.0,WeatherDisplay:10.37,2013-11-12 01:47:00,
2013-11-11 20:52:00,41.8,25.4,30.03,SSE,157,0.0,0.0,52,0.00,BKN,,0.00,0.0,WeatherDisplay:10.37,2013-11-12 01:52:00,
2013-11-11 20:57:00,41.1,25.3,30.03,SSE,158,0.0,0.0,53,0.00,BKN,,0.00,0.0,WeatherDisplay:10.37,2013-11-12 01:57:00,
2013-11-11 21:02:00,40.3,25.8,30.03,SSE,157,0.0,0.0,56,0.00,BKN,,0.00,0.0,WeatherDisplay:10.37,2013-11-12 02:02:00,
2013-11-11 21:07:00,39.8,25.4,30.03,SSE,158,0.0,0.0,56,0.00,BKN,,0.00,0.0,WeatherDisplay:10.37,2013-11-12 02:07:00,
2013-11-11 21:12:00,39.5,25.9,30.03,SSE,158,0.0,0.0,58,0.00,BKN,,0.00,0.0,WeatherDisplay:10.37,2013-11-12 02:12:00,
2013-11-11 21:17:00,39.8,27.0,30.03,SSE,158,0.0,0.0,60,0.00,BKN,,0.00,0.0,WeatherDisplay:10.37,2013-11-12 02:17:00,
2013-11-11 21:22:00,40.5,27.7,30.03,SSE,158,0.0,0.0,60,0.00,BKN,,0.00,0.0,WeatherDisplay:10.37,2013-11-12 02:22:00,
2013-11-11 21:27:00,40.8,28.0,30.03,SSE,158,0.0,0.0,60,0.00,BKN,,0.00,0.0,WeatherDisplay:10.37,2013-11-12 02:27:00,
2013-11-11 21:32:00,40.9,28.5,30.03,SSE,157,0.0,0.0,61,0.00,BKN,,0.00,0.0,WeatherDisplay:10.37,2013-11-12 02:32:00,
2013-11-11 21:37:00,41.1,29.1,30.03,SSE,158,0.0,0.0,62,0.00,BKN,,0.00,0.0,WeatherDisplay:10.37,2013-11-12 02:37:00,
2013-11-11 21:42:00,40.9,28.9,30.03,SSE,158,0.0,0.0,62,0.00,BKN,,0.00,0.0,WeatherDisplay:10.37,2013-11-12 02:42:00,
2013-11-11 21:47:00,40.9,28.9,30.03,SSE,158,0.0,0.0,62,0.00,BKN,,0.00,0.0,WeatherDisplay:10.37,2013-11-12 02:47:00,
2013-11-11 21:52:00,40.9,29.3,30.03,SSE,158,0.0,0.0,63,0.00,BKN,,0.00,0.0,WeatherDisplay:10.37,2013-11-12 02:52:00,
2013-11-11 21:57:00,41.1,29.5,30.03,SSE,157,0.0,0.0,63,0.00,BKN,,0.00,0.0,WeatherDisplay:10.37,2013-11-12 02:57:00,
2013-11-11 22:02:00,41.1,29.5,30.02,SSE,158,0.0,0.0,63,0.00,BKN,,0.00,0.0,WeatherDisplay:10.37,2013-11-12 03:02:00,
2013-11-11 22:07:00,41.1,29.8,30.02,SSE,158,0.0,0.0,64,0.00,BKN,,0.00,0.0,WeatherDisplay:10.37,2013-11-12 03:07:00,
2013-11-11 22:12:00,40.9,29.7,30.02,SSE,158,0.0,0.0,64,0.00,BKN,,0.00,0.0,WeatherDisplay:10.37,2013-11-12 03:12:00,
2013-11-11 22:17:00,40.9,30.0,30.02,SSE,157,0.0,0.0,65,0.00,BKN,,0.00,0.0,WeatherDisplay:10.37,2013-11-12 03:17:00,
2013-11-11 22:22:00,40.9,30.0,30.02,SSE,158,0.0,0.0,65,0.00,BKN,,0.00,0.0,WeatherDisplay:10.37,2013-11-12 03:22:00,
2013-11-11 22:27:00,40.9,30.0,30.02,SSE,157,0.0,0.0,65,0.00,BKN,,0.00,0.0,WeatherDisplay:10.37,2013-11-12 03:27:00,
2013-11-11 22:32:00,41.1,30.2,30.02,SSE,158,0.0,0.0,65,0.00,BKN,,0.00,0.0,WeatherDisplay:10.37,2013-11-12 03:32:00,
2013-11-11 22:37:00,41.1,30.2,30.02,SSE,158,0.0,0.0,65,0.00,BKN,,0.00,0.0,WeatherDisplay:10.37,2013-11-12 03:37:00,
2013-11-11 22:42:00,41.2,30.3,30.02,SSE,158,0.2,0.0,65,0.00,BKN,,0.00,0.0,WeatherDisplay:10.37,2013-11-12 03:42:00,
2013-11-11 22:47:00,41.8,30.1,30.01,SSE,161,0.0,0.0,63,0.00,BKN,,0.00,0.0,WeatherDisplay:10.37,2013-11-12 03:47:00,
2013-11-11 22:52:00,42.1,29.6,30.01,SSE,161,0.0,0.0,61,0.00,BKN,,0.00,0.0,WeatherDisplay:10.37,2013-11-12 03:52:00,
2013-11-11 22:57:00,41.9,29.4,30.01,SSE,161,0.0,0.0,61,0.00,BKN,,0.00,0.0,WeatherDisplay:10.37,2013-11-12 03:57:00,
2013-11-11 23:02:00,41.9,29.0,30.01,SSE,161,0.0,0.0,60,0.00,BKN,,0.00,0.0,WeatherDisplay:10.37,2013-11-12 04:02:00,
2013-11-11 23:07:00,41.9,28.6,30.01,SSE,161,0.0,0.0,59,0.00,BKN,,0.00,0.0,WeatherDisplay:10.37,2013-11-12 04:07:00,
2013-11-11 23:12:00,41.9,29.0,30.01,SSE,161,0.0,0.0,60,0.00,BKN,,0.00,0.0,WeatherDisplay:10.37,2013-11-12 04:12:00,
2013-11-11 23:17:00,42.1,29.2,30.01,SSE,161,0.0,0.0,60,0.00,BKN,,0.00,0.0,WeatherDisplay:10.37,2013-11-12 04:17:00,
2013-11-11 23:22:00,42.1,29.2,30.01,SSE,161,0.0,0.0,60,0.00,BKN,,0.00,0.0,WeatherDisplay:10.37,2013-11-12 04:22:00,
2013-11-11 23:27:00,42.3,29.4,30.01,SSE,161,0.0,0.0,60,0.00,BKN,,0.00,0.0,WeatherDisplay:10.37,2013-11-12 04:27:00,
2013-11-11 23:32:00,42.5,29.6,30.01,SSE,161,0.0,0.0,60,0.00,BKN,,0.00,0.0,WeatherDisplay:10.37,2013-11-12 04:32:00,
2013-11-11 23:37:00,42.8,30.7,30.01,SSE,161,0.0,0.0,62,0.00,BKN,,0.00,0.0,WeatherDisplay:10.37,2013-11-12 04:37:00,
2013-11-11 23:42:00,43.6,29.4,30.02,NNE,18,9.4,10.5,57,0.00,BKN,,0.00,0.0,WeatherDisplay:10.37,2013-11-12 04:42:00,
2013-11-11 23:47:00,44.5,28.9,30.02,NNE,17,3.6,4.6,54,0.00,BKN,,0.00,0.0,WeatherDisplay:10.37,2013-11-12 04:47:00,
2013-11-11 23:52:00,45.4,27.8,30.02,NNE,17,0.0,0.0,50,0.00,BKN,,0.00,0.0,WeatherDisplay:10.37,2013-11-12 04:52:00,
2013-11-11 23:57:00,45.8,28.2,30.02,NNE,17,0.0,0.0,50,0.00,BKN,,0.00,0.0,WeatherDisplay:10.37,2013-11-12 04:57:00,